Regional Weather Roundup
Issued by NWS

Home | Current Version | Previous Version | Text Only | Print | Product List | Glossary On
Versions: 1 2 3 4 5 6 7 8 9 10 11 12 13 14 15 16 17 18 19 20 21 22 23 24 25 26 27 28 29 30 31 32 33 34 35 36 37 38 39 40 41 42 43 44 45 46 47 48 49 50
000
ASCA44 KEWX 220410
RWRMX

LATIN AMERICA AND CARIBBEAN REGIONAL WEATHER ROUNDUP
NATIONAL WEATHER SERVICE AUSTIN/SAN ANTONIO TX
1100 PM CDT SAT OCT 21 2017

NOTE: "FAIR" INDICATED FEW OR NO CLOUDS BELOW 12,000 FEET WITH NO
SIGNIFICANT WEATHER AND/OR OBSTRUCTIONS TO VISIBILITY.

BAJA CALIFORNIA

CITY           SKY/WX    TMP DP  RH WIND       PRES   REMARKS
LA PAZ         CLEAR     77  61  57 CALM      29.92R
MEXICALI       CLEAR     72  28  20 W6        30.07
S.J. DEL CABO  CLEAR     79  68  69 NW9       29.91R
TIJUANA        CLEAR     63  57  82 CALM      30.08R

NORTHWESTERN MEXICO

CITY           SKY/WX    TMP DP  RH WIND       PRES   REMARKS
CULIACAN       CLEAR     82  75  78 CALM      29.86S
HERMOSILLO     CLEAR     77  57  50 W5        29.97R
CD. JUAREZ       N/A    N/A N/A N/A MISG        N/A
LOS MOCHIS       N/A    N/A N/A N/A MISG        N/A

NORTHEASTERN MEXICO

CITY           SKY/WX    TMP DP  RH WIND       PRES   REMARKS
CHIHUAHUA        N/A    N/A N/A N/A MISG        N/A
MONCLOVA         N/A    N/A N/A N/A MISG        N/A
MONTERREY      PTCLDY    73  66  78 NW5       29.91R
REYNOSA          N/A    N/A N/A N/A MISG        N/A
TORREON        CLEAR     77  52  41 CALM      30.03R
CD. VICTORIA     N/A    N/A N/A N/A MISG        N/A

WESTERN MEXICO

CITY           SKY/WX    TMP DP  RH WIND       PRES   REMARKS
AGUASCALIENTES CLEAR     61  43  51 SE7       30.24R
COLIMA           N/A    N/A N/A N/A MISG        N/A
DEL BAJIO      CLEAR     63  46  55 CALM      30.26R
GUADALAJARA    CLEAR     63  50  63 S3        30.16R
MAZATLAN       PTCLDY    79  77  94 CALM      29.87
P. VALLARTA    CLEAR     81  81 100 CALM      29.87R HX  91
URUAPAN          N/A    N/A N/A N/A MISG        N/A

CENTRAL MEXICO

CITY           SKY/WX    TMP DP  RH WIND       PRES   REMARKS
CUERNAVACA       N/A    N/A N/A N/A MISG        N/A
MEXICO CITY    PTCLDY    66  43  42 NW8       30.33R
MORELIA        MOCLDY    61  57  88 CALM      30.22S
POZA RICA        N/A    N/A N/A N/A MISG        N/A
QUERETARO      MOCLDY    63  50  63 NE8       30.27S
S. LUIS POTOSI CLEAR     64  43  45 E7        30.21R
TAMPICO        CLEAR     79  75  89 E12       29.92R
TOLUCA         PTCLDY    54  48  82 CALM      30.39

SOUTHERN MEXICO

CITY           SKY/WX    TMP DP  RH WIND       PRES   REMARKS
ACAPULCO       PTCLDY    84  79  84 W7        29.85R HX  96
B. DE HUATULCO   N/A    N/A N/A N/A MISG        N/A
P. ESCONDIDO     N/A    N/A N/A N/A MISG        N/A
VERACRUZ       MOCLDY    77  75  94 MISG      29.94

YUCATAN PENINSULA

CITY           SKY/WX    TMP DP  RH WIND       PRES   REMARKS
CAMPECHE         N/A    N/A N/A N/A MISG        N/A
CANCUN         PTCLDY    81  77  89 E7        29.95R
CHETUMAL       MOCLDY    75  75 100 CALM      29.91S
CD. DEL CARMEN MOCLDY   N/A N/A N/A E14       29.93S
COZUMEL        CLOUDY    77  77 100 CALM      29.92S
MERIDA         CLOUDY    77  73  88 E6        29.95R
MINATITLAN       N/A    N/A N/A N/A MISG        N/A
TAPACHULA      RAIN      81  79  94 CALM      29.87S
TUX. GUTIERREZ MOCLDY    75  70  83 CALM      29.96R
VILLAHERMOSA   DRIZZLE   77  77 100 CALM      29.93R

CENTRAL AMERICA

CITY           SKY/WX    TMP DP  RH WIND       PRES   REMARKS

CARIBBEAN

CITY           SKY/WX    TMP DP  RH WIND       PRES   REMARKS
CURACAO        PTCLDY    82  73  74 E16       29.92S
KINGSTON       PTCLDY    82  72  69 NE5       29.94S
NASSAU         MOCLDY    82  75  78 E6        30.11S
SAN JUAN       PTCLDY    81  73  78 SE5       30.05S
SANTO DOMINGO  PTCLDY    77  73  88 NE5       30.00S
ST. THOMAS       N/A     81  73  78 E7        30.05

$$





USA.gov is the U.S. government's official web portal to all federal, state and local government web resources and services.